KOREASAT 7

Last updated on Sun Oct 06 2024 00:02:41 GMT+0000 (Coordinated Universal Time)

1 42691U 17023A 24279.58245249 -.00000352 00000+0 00000+0 0 9997 2 42691 0.0367 49.8131 0001889 167.9066 122.6249 1.00272703 27161
UTC large
Height (km)
Speed (km/s)
/
Latitude / Longitude
Inclination (degrees)
Orbital Period (minutes)
Azimuth
Elevation
Range (km)
Doppler Factor

Next 0 passes for location: London (51.5072 / 0.1276)

Sorry there are no passes over London.